This demonstration page uses our WeatherBlox Daily Observations layout. Learn more.

Left ArrowRight Arrow

31.84235, -102.49876

Hourly Observations for November 15, 2015

Temp ( °F °C ) Dew Point ( °F °C ) Humidity (%) Winds ( mph kmh ) Pressure ( in mb ) Visibility ( mi km ) Precip ( " mm )
12:14 am 00:14 Partly Cloudy 53 11.7 49 9.4 86 86 S 12 19 30.15 1021 9 14 0.00 0.00
12:27 am 00:27 Mostly Cloudy 53 11.7 50 10 89 89 S 10 17 30.15 1021 10 16 0.00 0.00
12:53 am 00:53 Cloudy 54 12.2 50 10 87 87 S 15 24 30.10 1019 10 16 0.00 0.00
1:53 am 01:53 Cloudy 55 12.8 51 10.6 87 87 S 16 26 30.08 1019 9 14 0.00 0.00
2:53 am 02:53 Mostly Cloudy 55 12.8 51 10.6 87 87 S 13 20 30.06 1018 8 13 0.00 0.00
3:53 am 03:53 Cloudy 55 12.8 51 10.6 87 87 S 17 28 30.04 1017 7 11 0.00 0.00
4:53 am 04:53 Cloudy 55 12.8 52 11.1 90 90 S 14 22 30.04 1017 8 13 0.00 0.03
5:53 am 05:53 Cloudy 56 13.3 52 11.1 87 87 S 17 28 30.03 1017 7 11 0.00 0.03
6:53 am 06:53 Cloudy 55 12.8 51 10.6 87 87 S 18 30 30.06 1018 7 11 0.00 0.00
7:53 am 07:53 Cloudy with Light Rain 55 12.8 52 11.1 90 90 S 15 24 30.06 1018 6 10 0.00 0.03
8:53 am 08:53 Cloudy 56 13.3 52 11.1 87 87 S 13 20 30.07 1018 7 11 0.00 0.03
9:53 am 09:53 Partly Cloudy 58 14.4 53 11.7 84 84 S 12 19 30.06 1018 7 11 0.00 0.03
10:53 am 10:53 Cloudy 61 16.1 53 11.7 75 75 S 14 22 30.06 1018 10 16 0.00 0.00
11:53 am 11:53 Cloudy with Light Rain 61 16.1 53 11.7 75 75 SSW 14 22 30.06 1018 9 14 0.00 0.03
12:53 pm 12:53 Cloudy with Light Rain 59 15 55 12.8 87 87 S 13 20 30.03 1017 7 11 0.00 0.03
1:06 pm 13:06 Cloudy with Light Rain 59 15 55 12.8 87 87 S 9 15 30.03 1017 7 11 0.00 0.03
1:43 pm 13:43 Cloudy with Light Rain 58 14.4 54 12.2 87 87 S 15 24 29.97 1015 7 11 0.01 0.25
1:53 pm 13:53 Cloudy 59 15 55 12.8 87 87 S 15 24 29.96 1015 7 11 0.01 0.25
2:53 pm 14:53 Mostly Cloudy 61 16.1 55 12.8 81 81 S 15 24 29.93 1014 10 16 0.00 0.00
3:34 pm 15:34 Mostly Cloudy 62 16.7 55 12.8 78 78 S 14 22 29.91 1013 10 16 0.00 0.00
3:53 pm 15:53 Mostly Cloudy 63 17.2 56 13.3 78 78 S 13 20 29.92 1013 10 16 0.00 0.00
4:34 pm 16:34 Mostly Cloudy 61 16.1 55 12.8 81 81 S 13 20 29.94 1014 10 16 0.00 0.00
4:53 pm 16:53 Cloudy 61 16.1 55 12.8 81 81 SSE 12 19 29.92 1013 10 16 0.00 0.00
5:12 pm 17:12 Cloudy 60 15.6 55 12.8 84 84 S 13 20 29.97 1015 7 11 0.00 0.00
5:53 pm 17:53 Cloudy with Mist and Fog 59 15 55 12.8 87 87 S 14 22 29.95 1014 6 10 0.00 0.00
6:53 pm 18:53 Cloudy with Light Rain 59 15 56 13.3 90 90 S 14 22 29.94 1014 5 8 0.00 0.03
7:53 pm 19:53 Cloudy with Light Rain 58 14.4 56 13.3 93 93 S 16 26 29.92 1013 5 8 0.00 0.03
8:53 pm 20:53 Cloudy with Mist and Fog 58 14.4 56 13.3 93 93 S 13 20 29.91 1013 5 8 0.00 0.03
9:53 pm 21:53 Cloudy with Mist and Fog 59 15 56 13.3 90 90 S 13 20 29.92 1013 6 10 0.00 0.00
10:53 pm 22:53 Cloudy with Mist and Fog 59 15 56 13.3 90 90 S 13 20 29.89 1012 5 8 0.00 0.00
11:53 pm 23:53 Mostly Cloudy with Mist and Fog 58 14.4 56 13.3 93 93 S 10 17 29.86 1011 5 8 0.00 0.00

Powered by AerisWeather